Location: Peebles
(55.6412°N, 3.1714°W)
Time: 23:43:10
(UTC+00:00)

Cosmos 1758 - Visible Passes

Search period start: 27 January 2022 00:00
Search period end: 06 February 2022 00:00
Orbit: 537 x 562 km, 82.5° (Epoch: 27 January)

Date Brightness Start Highest point End Pass type
(mag) Time Alt. Az. Time Alt. Az. Time Alt. Az.
27 Jan 6.2 04:17:23 14° NE 04:17:23 14° NE 04:18:03 10° NNE visible
27 Jan 5.0 05:53:06 20° NNW 05:53:06 20° NNW 05:54:39 10° N visible
27 Jan 6.7 17:17:30 10° WNW 17:18:17 10° W 17:19:04 10° W visible
28 Jan 6.3 04:13:17 12° NNE 04:13:17 12° NNE 04:13:38 10° NNE visible
28 Jan 5.2 05:49:01 17° NNW 05:49:01 17° NNW 05:50:09 10° N visible
29 Jan 6.4 04:09:08 11° NNE 04:09:08 11° NNE 04:09:13 10° NNE visible
29 Jan 5.4 05:44:51 15° N 05:44:51 15° N 05:45:40 10° N visible
30 Jan 5.6 05:40:38 13° N 05:40:38 13° N 05:41:10 10° N visible
31 Jan 5.7 05:36:23 11° N 05:36:23 11° N 05:36:40 10° N visible
01 Feb 5.9 05:32:05 10° N 05:32:05 10° N 05:32:09 10° N visible
